DW6835 Weather Reports


time (UTC)temp
C
wind
direction
speed
KPH
gust
KPH
rain 1hr
cm
rain 24hr
cm
rain mn
cm
humidity
%
barometer
mb
20260506103338 14 116 1.6 4.8 0.00 0.00 0.00 84 1018.7
20260506102848 14 114 0.0 3.2 0.00 0.00 0.00 84 1018.7
20260506102343 14 102 0.0 4.8 0.00 0.00 0.00 84 1018.6
20260506101834 14 128 1.6 8.0 0.00 0.00 0.00 84 1018.5
20260506101406 14 150 3.2 8.0 0.00 0.00 0.00 84 1018.5
20260506100856 14 82 1.6 4.8 0.00 0.00 0.00 84 1018.5
20260506100337 14 141 0.0 4.8 0.00 0.00 0.00 84 1018.5
20260506095848 14 113 1.6 4.8 0.00 0.00 0.00 83 1018.5
20260506095340 14 160 0.0 4.8 0.00 0.00 0.00 83 1018.5
20260506094833 14 136 1.6 3.2 0.00 0.00 0.00 83 1018.4
20260506094346 14 135 0.0 3.2 0.00 0.00 0.00 83 1018.5
20260506093838 14 134 1.6 3.2 0.00 0.00 0.00 82 1018.4
20260506093412 14 143 0.0 1.6 0.00 0.00 0.00 82 1018.4
20260506092901 14 140 0.0 4.8 0.00 0.00 0.00 82 1018.5
20260506092334 14 124 1.6 4.8 0.00 0.00 0.00 82 1018.4
20260506091846 14 165 1.6 4.8 0.00 0.00 0.00 83 1018.5
20260506091339 14 141 1.6 4.8 0.00 0.00 0.00 83 1018.5
20260506090834 14 158 3.2 6.4 0.00 0.00 0.00 83 1018.5
20260506090354 14 124 0.0 6.4 0.00 0.00 0.00 83 1018.5
20260506085844 14 134 1.6 4.8 0.00 0.00 0.00 83 1018.5
20260506085337 15 102 1.6 4.8 0.00 0.00 0.00 83 1018.6
20260506084849 15 126 0.0 3.2 0.00 0.00 0.00 83 1018.5
20260506084343 15 150 0.0 1.6 0.00 0.00 0.00 83 1018.5
20260506083837 15 120 0.0 1.6 0.00 0.00 0.00 83 1018.5
20260506083349 15 126 0.0 4.8 0.00 0.00 0.00 83 1018.5
20260506082838 15 126 1.6 4.8 0.00 0.00 0.00 83 1018.5
20260506082332 15 143 0.0 4.8 0.00 0.00 0.00 82 1018.6
20260506081844 15 116 0.0 4.8 0.00 0.00 0.00 82 1018.5
20260506081338 15 145 0.0 3.2 0.00 0.00 0.00 82 1018.5
20260506080832 15 139 0.0 3.2 0.00 0.00 0.00 82 1018.5
20260506080354 15 96 0.0 0.0 0.00 0.00 0.00 83 1018.4
20260506073346 15 154 0.0 1.6 0.00 0.08 0.00 83 1018.3
20260506072837 15 173 0.0 0.0 0.00 0.08 0.00 82 1018.2
20260506072411 15 122 0.0 0.0 0.00 0.08 0.00 83 1018.2
20260506071839 15 130 0.0 1.6 0.00 0.08 0.00 83 1018.1
20260506071333 15 197 0.0 1.6 0.00 0.08 0.00 82 1018.0
20260506070906 15 138 0.0 0.0 0.00 0.08 0.00 82 1018.0
20260506070345 15 137 0.0 0.0 0.00 0.08 0.00 82 1018.1
20260506062342 15 230 0.0 3.2 0.00 0.20 0.08 81 1017.6
20260506061834 15 210 0.0 3.2 0.00 0.20 0.08 81 1017.5
20260506061346 15 158 0.0 3.2 0.00 0.20 0.08 81 1017.5
20260506060839 15 275 0.0 4.8 0.00 0.20 0.08 81 1017.5
20260506060402 15 221 0.0 4.8 0.00 0.20 0.08 81 1017.5
20260506051343 16 238 3.2 12.9 0.00 0.51 0.08 80 1017.0
20260506050837 16 269 0.0 4.8 0.00 0.51 0.08 80 1017.0
20260506050336 16 272 0.0 9.7 0.00 0.51 0.08 79 1016.9
20260506044852 16 210 3.2 6.4 0.00 0.84 0.08 79 1016.8
20260506044346 16 214 1.6 9.7 0.00 0.84 0.08 79 1016.8
20260506043859 16 181 3.2 8.0 0.00 0.84 0.08 79 1016.7
20260506043349 16 283 3.2 8.0 0.00 0.84 0.08 80 1016.6
20260506042840 16 126 0.0 1.6 0.00 0.84 0.08 80 1016.5
20260506042333 16 113 0.0 1.6 0.00 0.84 0.08 80 1016.4
20260506041845 16 164 0.0 4.8 0.00 0.84 0.08 80 1016.2
20260506041339 16 141 0.0 4.8 0.00 0.84 0.08 80 1016.2
20260506040852 16 96 1.6 6.4 0.00 0.84 0.08 79 1016.1
20260506040352 16 119 1.6 6.4 0.00 0.84 0.08 79 1016.1
20260506035842 16 122 0.0 6.4 0.00 1.52 0.08 79 1016.0
20260506035334 16 124 3.2 6.4 0.00 1.52 0.08 79 1016.1
20260506034846 16 152 1.6 4.8 0.00 1.52 0.08 79 1016.1
20260506034400 17 134 1.6 6.4 0.00 1.52 0.08 78 1016.1
20260506033833 17 78 1.6 6.4 0.00 1.52 0.08 78 1016.0
20260506033345 17 93 3.2 4.8 0.00 1.52 0.08 78 1016.0
20260506032834 17 129 0.0 4.8 0.00 1.52 0.08 78 1016.0
20260506032347 17 132 0.0 6.4 0.00 1.52 0.08 77 1015.9
20260506031859 17 148 3.2 6.4 0.00 1.52 0.08 77 1015.8
20260506031412 17 120 0.0 4.8 0.00 1.52 0.08 77 1015.6
20260506030845 17 108 0.0 6.4 0.00 1.52 0.08 77 1015.6
20260506030336 17 135 1.6 6.4 0.00 1.52 0.08 76 1015.5
20260506025847 17 194 1.6 6.4 0.00 1.78 0.08 76 1015.5
20260506025335 17 103 3.2 6.4 0.00 1.78 0.08 75 1015.3
20260506024847 17 163 3.2 6.4 0.00 1.78 0.08 75 1015.3
20260506024340 17 154 0.0 6.4 0.00 1.78 0.08 75 1015.3
20260506023834 17 125 1.6 8.0 0.00 1.78 0.08 75 1015.3
20260506023347 17 80 3.2 11.3 0.00 1.78 0.08 75 1015.2
20260506022837 17 176 4.8 11.3 0.00 1.78 0.08 75 1015.1
20260506022350 17 137 3.2 6.4 0.00 1.78 0.08 75 1015.0
20260506021900 17 159 1.6 9.7 0.00 1.78 0.08 75 1015.0
20260506021412 17 104 3.2 12.9 0.00 1.78 0.08 75 1014.9
20260506020844 17 144 6.4 12.9 0.00 1.78 0.08 75 1014.9
20260506020346 17 135 3.2 11.3 0.00 1.78 0.08 74 1014.9
20260506015857 17 129 1.6 9.7 0.00 2.01 0.08 74 1015.0
20260506015349 17 130 3.2 12.9 0.00 2.01 0.08 74 1014.9
20260506014841 17 102 3.2 12.9 0.00 2.01 0.08 73 1014.9
20260506014332 17 66 4.8 11.3 0.00 2.01 0.08 73 1014.9
20260506013845 17 97 4.8 9.7 0.00 2.01 0.08 72 1014.9
20260506012832 17 106 3.2 8.0 0.00 2.01 0.08 73 1014.7
20260506012346 17 94 3.2 9.7 0.00 2.01 0.08 73 1014.7
20260506011838 18 117 4.8 9.7 0.00 2.01 0.08 72 1014.8
20260506011350 18 96 3.2 6.4 0.00 2.01 0.08 71 1014.9
20260506010843 18 79 3.2 9.7 0.00 2.01 0.08 72 1014.8
20260506010344 18 146 3.2 11.3 0.00 2.01 0.08 72 1014.7
20260506005834 18 73 4.8 11.3 0.00 2.13 0.08 72 1014.8
20260506005347 18 190 4.8 11.3 0.00 2.13 0.08 71 1014.7
20260506004839 18 110 4.8 8.0 0.00 2.13 0.08 71 1014.6
20260506004333 18 139 3.2 8.0 0.00 2.13 0.08 71 1014.6
20260506003905 18 103 3.2 9.7 0.00 2.13 0.08 71 1014.5
20260506003336 18 131 4.8 9.7 0.00 2.13 0.08 70 1014.5
20260506002847 18 89 3.2 11.3 0.00 2.13 0.08 71 1014.4
20260506002341 18 108 4.8 11.3 0.00 2.13 0.08 70 1014.5
20260506001912 18 93 3.2 6.4 0.00 2.13 0.08 71 1014.5
20260506001405 18 142 1.6 12.9 0.00 2.13 0.08 71 1014.5
20260506000838 18 76 8.0 12.9 0.00 2.13 0.08 70 1014.5
20260506000337 18 99 3.2 12.9 0.00 2.13 0.08 70 1014.5
20260505235848 18 79 3.2 9.7 0.00 2.39 0.08 69 1014.4
20260505235342 18 151 1.6 4.8 0.00 2.39 0.08 68 1014.4
20260505234853 18 148 1.6 4.8 0.00 2.39 0.08 68 1014.4
20260505234347 18 210 1.6 4.8 0.00 2.39 0.08 68 1014.4
20260505233840 18 200 1.6 8.0 0.00 2.39 0.08 68 1014.4
20260505233353 18 135 4.8 8.0 0.00 2.39 0.08 67 1014.4
20260505232842 18 124 3.2 8.0 0.00 2.39 0.08 67 1014.4
20260505232335 18 188 1.6 8.0 0.00 2.39 0.08 68 1014.3
20260505231847 18 70 4.8 9.7 0.00 2.39 0.08 67 1014.4
20260505231341 18 173 1.6 9.7 0.00 2.39 0.08 68 1014.4
20260505230838 18 122 3.2 6.4 0.00 2.39 0.08 66 1014.4
20260505230345 18 349 0.0 3.2 0.00 2.39 0.08 66 1014.5
20260505225833 19 213 0.0 3.2 0.00 2.59 0.08 64 1014.5
20260505225347 19 211 1.6 4.8 0.00 2.59 0.08 66 1014.4
20260505224839 18 134 1.6 4.8 0.00 2.59 0.08 66 1014.4
20260505224336 18 160 1.6 6.4 0.00 2.59 0.08 67 1014.5
20260505223850 18 170 3.2 8.0 0.00 2.59 0.08 66 1014.4
20260505223343 18 84 1.6 8.0 0.00 2.59 0.08 67 1014.5
20260505222853 18 107 1.6 4.8 0.00 2.59 0.08 67 1014.6
20260505222343 18 108 1.6 4.8 0.00 2.59 0.08 67 1014.7
20260505221835 18 70 0.0 1.6 0.00 2.59 0.08 67 1014.7
20260505221405 18 101 0.0 3.2 0.00 2.59 0.08 68 1014.8
20260505220858 18 52 1.6 3.2 0.00 2.59 0.08 68 1014.8
20260505220359 18 82 1.6 6.4 0.00 2.59 0.08 68 1014.8
20260505215849 18 98 1.6 6.4 0.00 2.64 0.08 68 1014.8
20260505215343 18 105 1.6 6.4 0.00 2.64 0.08 69 1014.9
20260505214833 18 105 1.6 6.4 0.00 2.64 0.08 68 1015.0
20260505214346 18 141 3.2 12.9 0.00 2.64 0.08 69 1015.1
20260505213840 18 115 4.8 12.9 0.00 2.64 0.08 69 1015.1
20260505213353 18 199 1.6 11.3 0.00 2.64 0.08 67 1015.1
20260505212904 18 144 1.6 9.7 0.00 2.64 0.08 70 1015.1
20260505212336 18 203 3.2 12.9 0.00 2.64 0.08 69 1015.1
20260505211846 18 146 1.6 12.9 0.00 2.64 0.08 68 1015.1
20260505211400 18 272 3.2 8.0 0.00 2.64 0.08 69 1015.1
20260505210832 18 117 1.6 8.0 0.00 2.64 0.08 70 1015.1
20260505210354 18 153 3.2 8.0 0.00 2.64 0.08 71 1015.1
20260505205846 17 115 0.0 4.8 0.00 2.67 0.08 73 1015.1
20260505205338 17 155 0.0 3.2 0.00 2.67 0.08 73 1015.2
20260505204910 17 129 0.0 4.8 0.00 2.67 0.08 74 1015.1
20260505204341 17 302 3.2 4.8 0.00 2.67 0.08 74 1015.2
20260505203855 17 270 0.0 4.8 0.00 2.67 0.08 76 1015.2
20260505203407 16 266 3.2 9.7 0.00 2.67 0.08 77 1015.3
20260505202836 16 236 3.2 9.7 0.00 2.67 0.08 75 1015.3
20260505202350 16 252 3.2 8.0 0.00 2.67 0.08 75 1015.3
20260505201842 16 119 3.2 6.4 0.00 2.67 0.08 74 1015.3
20260505201334 17 146 1.6 6.4 0.00 2.67 0.08 73 1015.4
20260505200848 17 145 1.6 6.4 0.00 2.67 0.08 75 1015.4
20260505200409 17 148 0.0 6.4 0.00 2.67 0.08 75 1015.4
20260505195839 16 179 1.6 6.4 0.00 2.69 0.08 74 1015.4
20260505195332 17 143 1.6 4.8 0.00 2.69 0.08 73 1015.5
20260505194844 16 153 0.0 4.8 0.00 2.69 0.08 75 1015.5
20260505194338 16 128 3.2 8.0 0.00 2.69 0.08 75 1015.5
20260505193850 16 133 3.2 9.7 0.00 2.69 0.08 78 1015.5
20260505193403 16 119 3.2 9.7 0.00 2.69 0.08 78 1015.5
20260505192832 16 102 0.0 6.4 0.00 2.69 0.08 77 1015.5
20260505192345 16 115 1.6 6.4 0.00 2.69 0.08 77 1015.6
20260505191837 16 146 1.6 6.4 0.00 2.69 0.08 78 1015.5
20260505191351 16 133 1.6 8.0 0.00 2.69 0.08 79 1015.5
20260505190846 16 120 4.8 8.0 0.00 2.69 0.08 77 1015.6
20260505190353 16 131 1.6 4.8 0.00 2.69 0.08 79 1015.5
20260505185844 16 228 0.0 0.0 0.00 2.69 0.08 80 1015.5
20260505185338 15 229 0.0 4.8 0.00 2.69 0.08 80 1015.5
20260505184850 15 230 1.6 6.4 0.00 2.69 0.08 80 1015.5
20260505184344 15 237 1.6 6.4 0.00 2.69 0.08 80 1015.5
20260505183839 15 179 1.6 6.4 0.00 2.69 0.08 81 1015.5
20260505183346 15 89 3.2 6.4 0.00 2.69 0.08 81 1015.5
20260505182857 15 109 1.6 3.2 0.00 2.69 0.08 81 1015.4
20260505182409 15 116 0.0 3.2 0.00 2.69 0.08 84 1015.4
20260505181840 15 83 1.6 3.2 0.00 2.69 0.08 83 1015.4
20260505181333 15 56 0.0 3.2 0.00 2.69 0.08 85 1015.4
20260505180847 15 245 0.0 3.2 0.00 2.69 0.08 85 1015.5
20260505180348 14 134 0.0 1.6 0.00 2.69 0.08 85 1015.4
20260505175834 14 155 0.0 4.8 0.00 2.77 0.08 86 1015.4
20260505175347 14 260 1.6 4.8 0.00 2.77 0.08 86 1015.3
20260505174839 13 251 0.0 4.8 0.00 2.77 0.08 86 1015.3
20260505174337 14 146 0.0 3.2 0.00 2.77 0.08 87 1015.3
20260505173907 14 228 0.0 4.8 0.00 2.77 0.08 88 1015.2
20260505173339 13 134 1.6 4.8 0.00 2.77 0.08 87 1015.1
20260505172833 13 160 0.0 4.8 0.00 2.77 0.08 87 1015.2
20260505172344 13 130 1.6 4.8 0.00 2.77 0.08 88 1015.2
20260505171833 13 135 0.0 4.8 0.00 2.77 0.08 88 1015.2
20260505171347 13 121 1.6 4.8 0.00 2.77 0.08 88 1015.3
20260505170901 13 139 0.0 4.8 0.00 2.77 0.08 90 1015.3
20260505170337 13 120 1.6 4.8 0.00 2.77 0.08 89 1015.2
20260505165848 13 109 1.6 4.8 0.00 2.77 0.08 91 1015.2
20260505165346 13 135 1.6 4.8 0.00 2.77 0.08 91 1015.2
20260505164835 13 108 3.2 6.4 0.00 2.77 0.08 91 1015.1
20260505164406 13 98 1.6 6.4 0.00 2.77 0.08 91 1015.1
20260505163842 13 141 3.2 6.4 0.00 2.77 0.08 91 1015.1
20260505163411 12 117 0.0 6.4 0.00 2.77 0.08 92 1015.2
20260505162841 12 131 1.6 6.4 0.00 2.77 0.08 93 1015.1
20260505162338 12 104 1.6 6.4 0.00 2.77 0.08 93 1015.1
20260505161846 12 123 1.6 6.4 0.00 2.77 0.08 93 1015.0
20260505161358 12 134 1.6 4.8 0.00 2.77 0.08 94 1015.1
20260505160834 12 113 1.6 6.4 0.00 2.77 0.08 94 1015.1
20260505160353 12 86 1.6 6.4 0.00 2.77 0.08 94 1015.1
20260505153346 12 136 0.0 6.4 0.00 2.77 0.08 95 1015.0
20260505152841 11 115 3.2 6.4 0.00 2.77 0.08 95 1015.1
20260505152354 11 129 0.0 3.2 0.00 2.77 0.08 95 1015.0
20260505151841 11 127 0.0 4.8 0.00 2.77 0.08 95 1014.9
20260505151339 11 172 0.0 4.8 0.00 2.77 0.08 95 1015.0
20260505150832 11 74 0.0 4.8 0.00 2.77 0.08 96 1014.9
20260505150337 11 127 1.6 4.8 0.00 2.77 0.08 95 1014.8
20260505140335 11 139 3.2 8.0 0.00 2.77 0.08 96 1014.3
20260505124841 11 91 3.2 6.4 0.00 2.77 0.08 96 1014.1
20260505124339 11 132 1.6 8.0 0.00 2.77 0.08 96 1014.0
20260505123833 11 199 3.2 8.0 0.00 2.77 0.08 96 1014.0
20260505123345 11 120 1.6 6.4 0.00 2.77 0.08 96 1014.0
20260505122836 11 145 1.6 6.4 0.00 2.77 0.08 96 1014.0
20260505122350 11 141 1.6 8.0 0.00 2.77 0.08 96 1013.9
20260505121840 11 106 1.6 8.0 0.00 2.77 0.08 96 1013.8
20260505121354 11 171 1.6 4.8 0.00 2.77 0.08 96 1013.8
20260505120846 11 126 0.0 6.4 0.00 2.77 0.08 96 1013.9
20260505120349 11 139 3.2 6.4 0.00 2.77 0.08 96 1013.9
20260505115839 11 125 3.2 6.4 0.00 2.77 0.08 96 1014.1
20260505115332 11 135 1.6 4.8 0.00 2.77 0.08 96 1014.1
20260505114844 11 101 1.6 4.8 0.00 2.77 0.08 96 1014.1
20260505114336 11 121 0.0 4.8 0.00 2.77 0.08 96 1014.1
20260505113849 11 161 0.0 6.4 0.00 2.77 0.08 96 1014.2
20260505113342 11 129 1.6 8.0 0.00 2.77 0.08 96 1014.2
20260505112833 11 133 1.6 8.0 0.00 2.77 0.08 96 1014.3
20260505112347 11 131 3.2 8.0 0.00 2.77 0.08 96 1014.3
20260505111858 11 143 1.6 8.0 0.00 2.77 0.08 96 1014.2
20260505111352 11 114 1.6 8.0 0.00 2.77 0.08 96 1014.1
20260505110903 11 205 1.6 4.8 0.00 2.77 0.08 96 1014.0
20260505110351 11 165 0.0 6.4 0.00 2.77 0.08 96 1014.1